Weather History for Hermosillo, Mexico

Change the Weather History Date:

Friday, October 19, 2012

  Actual Average Record
Temperature  
Mean Temperature 83 °F -  
Max Temperature 95 °F 85 °F 102 °F (2003)
Min Temperature 71 °F 56 °F 55 °F (2013)
Cooling Degree Days 18    
Growing Degree Days 33 (Base 50)    
Moisture  
Dew Point 60 °F    
Average Humidity 49    
Maximum Humidity 69    
Minimum Humidity 26    
Precipitation  
Precipitation 0.00 in - - ()
Sea Level Pressure  
Sea Level Pressure 29.85 in    
Wind  
Wind Speed 2 mph ()    
Max Wind Speed 8 mph    
Max Gust Speed -    
Visibility 9.0 miles    
Events      
Averages and records for this station are not official NWS values.
T = Trace of Precipitation, MM = Missing Value Source: Averaged Metar Reports

Daily Weather History Graph

Daily Weather History Graph

Search for Another Location

Airport:

Trip Planner

Search our weather history database for the weather conditions in past years. The results will help you decide how hot, cold, wet, or windy it might be!

Date:

Astronomy

Oct. 19, 2012 Rise Set
Actual Time 7:28 AM MDT 6:49 PM MDT
Civil Twilight 7:04 AM MDT 7:13 PM MDT
Nautical Twilight 6:36 AM MDT 7:41 PM MDT
Astronomical Twilight 6:09 AM MDT 8:08 PM MDT
Moon 11:58 AM MDT 10:46 PM MDT
Length of Visible Light 12h 09m
Length of Day
11h 21m
Waxing Crescent, 24% of the Moon is Illuminated
Oct 19
Waxing Crescent
Oct 21
First Quarter
Oct 29
Full
Nov 6
Last Quarter
Nov 13
New

Hourly Weather History & Observations

Time (MDT) Temp. Heat Index Dew Point Humidity Pressure Visibility Wind Dir Wind Speed Gust Speed Precip Events Conditions
12:40 AM 73.4 °F - 57.2 °F 57% 29.92 in 10.0 mi Calm Calm - N/A   Clear
1:40 AM 73.4 °F - 57.2 °F 57% 29.92 in 7.0 mi Calm Calm - N/A   Clear
2:30 AM 75 °F - 60 °F 49% 29.87 in 5 mi SW 2.2 mph - -   Mostly Cloudy
2:41 AM 73.4 °F - 59.0 °F 61% 29.86 in 7.0 mi Calm Calm - N/A   Clear
3:40 AM 73.4 °F - 59.0 °F 61% 29.90 in 7.0 mi Calm Calm - N/A   Clear
5:03 AM 73.4 °F - 60.8 °F 65% 29.88 in 7.0 mi Calm Calm - N/A   Clear
5:30 AM 73 °F - 58 °F 50% 29.85 in 5 mi SW 2.2 mph - -   Scattered Clouds
5:48 AM 71.6 °F - 59.0 °F 64% 29.85 in 7.0 mi Calm Calm - N/A   Scattered Clouds
7:41 AM 71.6 °F - 60.8 °F 69% 29.89 in 10.0 mi Calm Calm - N/A   Scattered Clouds
8:35 AM 72 °F - 57 °F 50% 29.87 in 7 mi Calm Calm - -   Mostly Cloudy
8:49 AM 75.2 °F - 60.8 °F 61% 29.90 in 10.0 mi Calm Calm - N/A   Scattered Clouds
9:50 AM 77.0 °F - 60.8 °F 57% 29.91 in 10.0 mi Calm Calm - N/A   Scattered Clouds
10:44 AM 78.8 °F - 62.6 °F 57% 29.91 in 10.0 mi Calm Calm - N/A   Scattered Clouds
11:49 AM 84.2 °F 85.6 °F 64.4 °F 51% 29.90 in 10.0 mi West 4.6 mph - N/A   Scattered Clouds
11:50 AM 83 °F - 63 °F 42% 29.87 in 7 mi SSW 2.2 mph - -   Partly Cloudy
12:48 PM 87.8 °F 88.5 °F 62.6 °F 43% 29.87 in 10.0 mi WNW 4.6 mph - N/A   Scattered Clouds
1:50 PM 89.6 °F 90.1 °F 62.6 °F 40% 29.83 in 10.0 mi West 4.6 mph - N/A   Scattered Clouds
2:30 PM 92 °F - 62 °F 27% 29.77 in 5 mi SW 2.2 mph - -   Scattered Clouds
2:41 PM 93.2 °F 92.6 °F 59.0 °F 32% 29.75 in 10.0 mi SW 4.6 mph - N/A   Scattered Clouds
3:42 PM 95.0 °F 94.4 °F 59.0 °F 30% 29.80 in 12.0 mi WSW 3.5 mph - N/A   Scattered Clouds
4:42 PM 95.0 °F 93.0 °F 55.4 °F 26% 29.79 in 12.0 mi SW 6.9 mph - N/A   Scattered Clouds
5:45 PM 95.0 °F 93.0 °F 55.4 °F 26% 29.77 in 12.0 mi WSW 6.9 mph - N/A   Mostly Cloudy
6:48 PM 91.4 °F 89.9 °F 57.2 °F 31% 29.79 in 12.0 mi SW 6.9 mph - N/A   Mostly Cloudy
7:43 PM 87.8 °F 87.1 °F 59.0 °F 38% 29.80 in 10.0 mi SW 8.1 mph - N/A   Mostly Cloudy
8:42 PM 86.0 °F 87.3 °F 64.4 °F 48% 29.80 in 10.0 mi SW 5.8 mph - N/A   Mostly Cloudy
9:45 PM 82.4 °F 83.9 °F 64.4 °F 54% 29.82 in 10.0 mi WSW 4.6 mph - N/A   Mostly Cloudy
10:41 PM 80.6 °F 81.8 °F 62.6 °F 54% 29.83 in 10.0 mi SSW 3.5 mph - N/A   Mostly Cloudy
11:41 PM 78.8 °F - 64.4 °F 61% 29.82 in 10.0 mi SSW 3.5 mph - N/A   Scattered Clouds